GW6634 Weather Reports


time (UTC)temp
F
wind
direction
speed
knots
gust
knots
rain 1hr
in
rain 24hr
in
rain mn
in
humidity
%
barometer
mb
20260507101458 75 255 6.1 7.8 0.00 0.00 0.00 90 1013.2
20260507100959 75 257 6.1 7.0 0.00 0.00 0.00 90 1013.2
20260507100459 75 249 6.1 7.8 0.00 0.00 0.00 90 1013.0
20260507095958 75 252 6.1 7.0 0.00 0.00 0.00 90 1013.0
20260507095459 75 247 7.0 8.7 0.00 0.00 0.00 90 1012.9
20260507094958 75 250 6.1 7.8 0.00 0.00 0.00 90 1012.9
20260507094458 75 252 6.1 7.8 0.00 0.00 0.00 90 1013.1
20260507093958 75 246 7.0 8.7 0.00 0.00 0.00 90 1012.9
20260507093458 75 242 8.7 9.6 0.00 0.00 0.00 90 1012.8
20260507092958 75 239 8.7 9.6 0.00 0.00 0.00 90 1012.8
20260507092016 75 244 8.7 10.4 0.00 0.00 0.00 90 1012.9
20260507091459 75 243 8.7 10.4 0.00 0.00 0.00 90 1013.0
20260507090958 75 239 7.8 9.6 0.00 0.00 0.00 90 1013.2
20260507090458 75 236 7.8 8.7 0.00 0.00 0.00 91 1013.3
20260507085958 75 234 8.7 9.6 0.00 0.00 0.00 91 1013.3
20260507085459 75 241 7.0 7.8 0.00 0.00 0.00 91 1013.3
20260507084959 74 238 7.0 9.6 0.00 0.00 0.00 91 1013.3
20260507084458 74 245 7.8 10.4 0.00 0.00 0.00 91 1013.3
20260507083958 74 251 7.0 7.8 0.00 0.00 0.00 92 1013.5
20260507083458 74 252 7.0 7.8 0.00 0.00 0.00 92 1013.4
20260507082958 74 247 7.0 7.8 0.00 0.00 0.00 92 1013.4
20260507082458 74 250 7.0 7.8 0.00 0.00 0.00 92 1013.2
20260507081958 74 243 7.8 7.8 0.00 0.00 0.00 92 1013.3
20260507081458 74 254 6.1 7.8 0.00 0.00 0.00 92 1013.3
20260507080958 74 258 5.2 6.1 0.00 0.00 0.00 92 1013.5
20260507080458 74 260 5.2 6.1 0.00 0.00 0.00 92 1013.3
20260507075958 74 254 5.2 6.1 0.00 0.00 0.00 91 1013.3
20260507075458 74 250 7.0 7.8 0.00 0.00 0.00 91 1013.3
20260507074959 74 243 7.8 9.6 0.00 0.00 0.00 92 1013.3
20260507074500 74 232 6.1 7.8 0.00 0.00 0.00 92 1013.1
20260507073959 74 232 7.0 7.8 0.00 0.00 0.00 92 1013.1
20260507073458 74 227 7.0 7.8 0.00 0.00 0.00 92 1013.1
20260507072959 74 227 7.8 8.7 0.00 0.00 0.00 92 1013.3
20260507072459 74 224 7.0 7.8 0.00 0.00 0.00 92 1013.3
20260507071958 74 228 7.0 7.8 0.00 0.00 0.00 92 1013.4
20260507071459 74 219 7.8 8.7 0.00 0.00 0.00 92 1013.3
20260507071000 74 219 7.8 8.7 0.00 0.00 0.00 92 1013.5
20260507070459 74 225 7.8 8.7 0.00 0.00 0.00 92 1013.6
20260507065959 74 219 7.0 7.8 0.00 0.00 0.00 92 1013.6
20260507065500 74 221 7.8 7.8 0.00 0.00 0.00 92 1013.7
20260507064958 74 223 7.8 8.7 0.00 0.00 0.00 92 1013.8
20260507064458 74 226 5.2 6.1 0.00 0.00 0.00 92 1013.8
20260507063958 74 229 6.1 7.0 0.00 0.00 0.00 92 1014.1
20260507063458 74 232 5.2 6.1 0.00 0.00 0.00 92 1014.0
20260507062958 74 233 5.2 6.1 0.00 0.00 0.00 92 1014.3
20260507062458 74 226 5.2 6.1 0.00 0.00 0.00 92 1014.5
20260507062006 74 222 6.1 7.0 0.00 0.00 0.00 92 1014.4
20260507061459 74 223 5.2 5.2 0.00 0.00 0.00 92 1014.3
20260507060958 74 224 6.1 7.8 0.00 0.00 0.00 91 1014.3
20260507060458 74 219 5.2 6.1 0.00 0.00 0.00 91 1014.4
20260507055958 74 227 5.2 6.1 0.00 0.00 0.00 91 1014.7
20260507055459 74 227 4.3 5.2 0.00 0.00 0.00 91 1014.8
20260507054959 74 224 4.3 5.2 0.00 0.00 0.00 91 1014.8
20260507054458 74 232 4.3 5.2 0.00 0.00 0.00 91 1014.7
20260507053958 74 232 4.3 5.2 0.00 0.00 0.00 91 1014.8
20260507053458 74 235 4.3 5.2 0.00 0.00 0.00 91 1014.9
20260507052958 74 238 3.5 4.3 0.00 0.00 0.00 91 1014.9
20260507052458 74 234 3.5 4.3 0.00 0.00 0.00 91 1015.0
20260507051959 74 241 2.6 3.5 0.00 0.00 0.00 91 1015.1
20260507051458 74 248 3.5 4.3 0.00 0.00 0.00 91 1015.2
20260507050958 74 242 4.3 5.2 0.00 0.00 0.00 91 1015.2
20260507050458 74 251 4.3 4.3 0.00 0.00 0.00 91 1015.2
20260507045958 74 241 5.2 5.2 0.00 0.00 0.00 91 1015.2
20260507045459 74 241 4.3 5.2 0.00 0.00 0.00 91 1015.3
20260507044959 74 227 3.5 5.2 0.00 0.00 0.00 91 1015.3
20260507044500 74 236 4.3 4.3 0.00 0.00 0.00 91 1015.2
20260507043958 74 232 5.2 6.1 0.00 0.00 0.00 91 1015.2
20260507043458 74 220 7.0 7.8 0.00 0.00 0.00 91 1015.2
20260507042958 74 223 6.1 7.0 0.00 0.00 0.00 91 1015.4
20260507042500 74 216 6.1 8.7 0.00 0.00 0.00 91 1015.3
20260507042000 74 209 6.1 8.7 0.00 0.00 0.00 91 1015.3
20260507041458 74 210 6.1 7.0 0.00 0.00 0.00 91 1015.3
20260507040958 74 211 7.0 7.8 0.00 0.00 0.00 91 1015.3
20260507040458 74 207 7.0 7.8 0.00 0.00 0.00 91 1015.2
20260507035959 74 217 7.0 7.8 0.00 0.00 0.00 91 1015.5
20260507035009 74 216 7.0 7.8 0.00 0.00 0.00 90 1015.7
20260507034459 74 208 6.1 7.0 0.00 0.00 0.00 90 1015.7
20260507033958 74 219 6.1 7.0 0.00 0.00 0.00 90 1015.8
20260507033459 74 221 5.2 6.1 0.00 0.00 0.00 90 1015.8
20260507032958 75 216 5.2 7.0 0.00 0.00 0.00 90 1015.7
20260507032458 75 219 6.1 7.0 0.00 0.00 0.00 90 1015.7
20260507031958 75 211 6.1 7.0 0.00 0.00 0.00 90 1015.7
20260507031458 75 221 5.2 7.0 0.00 0.00 0.00 90 1015.8
20260507031001 75 215 4.3 5.2 0.00 0.00 0.00 90 1015.7
20260507030458 75 208 6.1 7.0 0.00 0.00 0.00 90 1015.5
20260507025958 75 207 6.1 7.8 0.00 0.00 0.00 90 1015.5
20260507025458 75 205 6.1 7.8 0.00 0.00 0.00 89 1015.6
20260507024958 75 202 8.7 10.4 0.00 0.00 0.00 89 1015.4
20260507024015 75 206 7.8 8.7 0.00 0.00 0.00 89 1015.4
20260507023458 75 213 7.0 7.8 0.00 0.00 0.00 89 1015.4
20260507022959 75 213 7.0 7.8 0.00 0.00 0.00 89 1015.5
20260507022459 75 196 5.2 7.0 0.00 0.00 0.00 89 1015.4
20260507021958 75 206 6.1 7.0 0.00 0.00 0.00 89 1015.3
20260507021458 75 196 7.8 8.7 0.00 0.00 0.00 89 1015.4
20260507020958 75 194 7.8 9.6 0.00 0.00 0.00 89 1015.2
20260507020459 75 184 8.7 9.6 0.00 0.00 0.00 89 1015.0
20260507015959 75 184 7.8 9.6 0.00 0.00 0.00 89 1015.2
20260507015458 75 183 7.8 8.7 0.00 0.00 0.00 89 1015.3
20260507014958 75 178 6.1 7.0 0.00 0.00 0.00 89 1015.4
20260507014458 75 184 7.0 8.7 0.00 0.00 0.00 89 1015.4
20260507013958 75 171 7.0 8.7 0.00 0.00 0.00 89 1015.2
20260507013458 75 183 6.1 7.0 0.00 0.00 0.00 89 1015.5
20260507012958 75 192 5.2 6.1 0.00 0.00 0.00 90 1015.4
20260507012458 75 207 6.1 7.0 0.00 0.00 0.00 90 1015.4
20260507011959 75 206 5.2 6.1 0.00 0.00 0.00 90 1015.5
20260507011458 75 190 6.1 7.0 0.00 0.00 0.00 90 1015.5
20260507010958 75 187 7.0 7.8 0.00 0.00 0.00 89 1015.5
20260507010459 75 202 7.8 9.6 0.00 0.00 0.00 89 1015.4
20260507005958 75 200 7.8 8.7 0.00 0.00 0.00 89 1015.3
20260507005458 75 205 7.8 8.7 0.00 0.00 0.00 89 1015.4
20260507004958 75 208 7.8 9.6 0.00 0.00 0.00 90 1015.3
20260507004459 75 202 7.0 7.8 0.00 0.00 0.00 90 1015.3
20260507003958 75 212 7.0 8.7 0.00 0.00 0.00 90 1015.3
20260507003458 75 216 7.8 10.4 0.00 0.00 0.00 89 1015.3
20260507002958 75 212 7.8 8.7 0.00 0.00 0.00 90 1015.2
20260507002458 75 205 8.7 9.6 0.00 0.00 0.00 89 1015.2
20260507001958 75 208 8.7 8.7 0.00 0.00 0.00 89 1015.2
20260507001458 75 211 7.8 9.6 0.00 0.00 0.00 88 1015.1
20260507000958 75 206 8.7 10.4 0.00 0.00 0.00 89 1015.0
20260507000459 75 207 9.6 12.2 0.00 0.00 0.00 88 1015.0
20260506235958 75 207 9.6 10.4 0.00 0.00 0.00 88 1014.9
20260506235458 76 205 8.7 11.3 0.00 0.00 0.00 88 1015.0
20260506235000 76 210 10.4 13.0 0.00 0.00 0.00 87 1015.0
20260506234458 76 213 11.3 13.0 0.00 0.00 0.00 87 1015.0
20260506233958 76 209 9.6 12.2 0.00 0.00 0.00 87 1014.9
20260506233459 76 214 10.4 13.0 0.00 0.00 0.00 87 1015.0
20260506232959 76 201 11.3 13.0 0.00 0.00 0.00 88 1015.1
20260506232459 76 214 12.2 13.9 0.00 0.00 0.00 87 1015.0
20260506231958 76 207 10.4 11.3 0.00 0.00 0.00 87 1015.3
20260506231458 76 206 11.3 13.9 0.00 0.00 0.00 87 1015.1
20260506230959 76 205 9.6 12.2 0.00 0.00 0.00 87 1014.9
20260506230458 76 209 9.6 13.0 0.00 0.00 0.00 86 1015.2
20260506225958 76 213 12.2 13.0 0.00 0.00 0.00 86 1015.4
20260506225458 76 211 10.4 12.2 0.00 0.00 0.00 87 1015.3
20260506224959 76 206 12.2 13.9 0.00 0.00 0.00 86 1015.1
20260506224458 76 216 13.0 14.8 0.00 0.00 0.00 84 1015.1
20260506223958 76 218 12.2 13.9 0.00 0.00 0.00 85 1015.1
20260506223458 76 219 12.2 13.0 0.00 0.00 0.00 84 1015.2
20260506222958 76 212 12.2 13.0 0.00 0.00 0.00 85 1015.3
20260506222459 76 217 11.3 12.2 0.00 0.00 0.00 84 1015.4
20260506221959 77 212 7.8 8.7 0.00 0.00 0.00 85 1015.4
20260506221458 77 210 8.7 11.3 0.00 0.00 0.00 84 1015.5
20260506220958 77 213 7.8 9.6 0.00 0.00 0.00 84 1015.5
20260506220459 77 211 8.7 10.4 0.00 0.00 0.00 84 1015.5
20260506215959 77 219 7.8 9.6 0.00 0.00 0.00 83 1015.6
20260506215458 77 192 9.6 11.3 0.00 0.00 0.00 82 1015.6
20260506214958 77 197 9.6 11.3 0.00 0.00 0.00 83 1015.6
20260506214500 77 193 7.8 10.4 0.00 0.00 0.00 83 1015.5
20260506213958 77 212 6.1 7.8 0.00 0.00 0.00 82 1015.6
20260506213458 77 227 7.8 8.7 0.00 0.00 0.00 82 1015.7
20260506212958 77 218 7.0 8.7 0.00 0.00 0.00 82 1015.6
20260506212458 77 222 6.1 8.7 0.00 0.00 0.00 82 1015.6
20260506211959 77 222 8.7 10.4 0.00 0.00 0.00 81 1015.6
20260506211459 77 210 7.8 8.7 0.00 0.00 0.00 83 1015.5
20260506210958 77 201 8.7 10.4 0.00 0.00 0.00 83 1015.4
20260506210458 77 211 7.8 12.2 0.00 0.00 0.00 82 1015.5
20260506205959 77 196 9.6 10.4 0.00 0.00 0.00 82 1015.6
20260506205459 77 206 11.3 13.0 0.00 0.00 0.00 81 1015.6
20260506204958 77 208 8.7 10.4 0.00 0.00 0.00 82 1015.5
20260506204458 77 198 11.3 13.0 0.00 0.00 0.00 80 1015.6
20260506203958 77 201 8.7 9.6 0.00 0.00 0.00 82 1015.8
20260506203459 77 195 9.6 10.4 0.00 0.00 0.00 81 1015.9
20260506202958 77 219 8.7 10.4 0.00 0.00 0.00 78 1015.9
20260506202500 77 214 9.6 11.3 0.00 0.00 0.00 79 1015.9
20260506201958 77 212 9.6 11.3 0.00 0.00 0.00 78 1015.9
20260506201458 77 202 7.8 9.6 0.00 0.00 0.00 79 1016.0
20260506200958 77 190 8.7 9.6 0.00 0.00 0.00 80 1016.1
20260506200458 77 195 7.8 10.4 0.00 0.00 0.00 81 1016.0
20260506195958 77 223 9.6 11.3 0.00 0.00 0.00 79 1016.2
20260506195458 77 220 7.8 10.4 0.00 0.00 0.00 79 1016.4
20260506195000 77 216 7.8 8.7 0.00 0.00 0.00 78 1016.3
20260506194459 77 222 8.7 10.4 0.00 0.00 0.00 79 1016.4
20260506193959 77 231 7.0 7.8 0.00 0.00 0.00 77 1016.4
20260506193458 77 222 7.8 9.6 0.00 0.00 0.00 76 1016.4
20260506193001 77 228 9.6 11.3 0.00 0.00 0.00 76 1016.5
20260506192458 77 228 9.6 10.4 0.00 0.00 0.00 76 1016.5
20260506192002 77 222 7.0 7.8 0.00 0.00 0.00 78 1016.3
20260506191459 78 228 6.1 7.8 0.00 0.00 0.00 77 1016.4
20260506190958 77 228 7.0 7.8 0.00 0.00 0.00 75 1016.5
20260506190458 77 229 6.1 7.8 0.00 0.00 0.00 77 1016.4
20260506190000 77 238 7.0 7.8 0.00 0.00 0.00 78 1016.6
20260506185459 77 234 7.8 8.7 0.00 0.00 0.00 78 1016.7
20260506184958 77 218 7.8 9.6 0.00 0.00 0.00 77 1016.6
20260506184458 77 232 8.7 10.4 0.00 0.00 0.00 79 1016.9
20260506183958 77 226 8.7 10.4 0.00 0.00 0.00 77 1017.0
20260506183500 77 230 10.4 12.2 0.00 0.00 0.00 77 1016.9
20260506182958 77 231 8.7 11.3 0.00 0.00 0.00 79 1017.0
20260506182459 77 227 7.8 8.7 0.00 0.00 0.00 78 1017.0
20260506181959 77 213 7.8 10.4 0.00 0.00 0.00 77 1017.0
20260506181459 77 241 7.8 9.6 0.00 0.00 0.00 78 1017.3
20260506180958 77 234 8.7 10.4 0.00 0.00 0.00 78 1017.2
20260506180459 77 239 8.7 9.6 0.00 0.00 0.00 78 1017.2
20260506175959 77 233 6.1 7.0 0.00 0.00 0.00 77 1017.2
20260506175459 77 235 7.0 7.8 0.00 0.00 0.00 79 1017.2
20260506174958 77 222 7.0 7.8 0.00 0.00 0.00 78 1017.1
20260506174459 77 223 7.8 9.6 0.00 0.00 0.00 77 1017.2
20260506173958 77 218 8.7 10.4 0.00 0.00 0.00 78 1017.3
20260506173458 77 225 7.0 7.8 0.00 0.00 0.00 79 1017.5
20260506173000 77 232 6.1 7.8 0.00 0.00 0.00 78 1017.2
20260506172458 77 229 6.1 7.0 0.00 0.00 0.00 80 1017.4
20260506171958 77 230 8.7 10.4 0.00 0.00 0.00 79 1017.1
20260506171459 77 222 6.1 7.0 0.00 0.00 0.00 80 1017.2
20260506170959 77 216 7.0 7.8 0.00 0.00 0.00 78 1017.1
20260506170459 77 220 6.1 7.8 0.00 0.00 0.00 78 1017.2
20260506165958 77 221 7.0 7.8 0.00 0.00 0.00 77 1017.6
20260506165458 77 223 8.7 10.4 0.00 0.00 0.00 78 1017.3
20260506164959 77 216 6.1 7.8 0.00 0.00 0.00 79 1017.1
20260506164459 76 218 7.8 8.7 0.00 0.00 0.00 78 1017.2
20260506163959 76 221 7.8 8.7 0.00 0.00 0.00 80 1016.9
20260506163458 76 200 4.3 5.2 0.00 0.00 0.00 81 1016.8
20260506162959 76 214 7.0 8.7 0.00 0.00 0.00 82 1017.1
20260506162459 76 201 8.7 10.4 0.00 0.00 0.00 81 1017.1
20260506161959 76 188 9.6 10.4 0.00 0.00 0.00 80 1017.0
20260506161459 76 216 9.6 11.3 0.00 0.00 0.00 81 1017.4
20260506160959 76 180 8.7 9.6 0.00 0.00 0.00 82 1016.9
20260506160503 76 210 7.8 8.7 0.00 0.00 0.00 82 1016.9
20260506155959 76 207 7.8 8.7 0.00 0.00 0.00 81 1017.0
20260506155459 76 195 7.8 8.7 0.00 0.00 0.00 81 1016.9
20260506154958 76 208 7.8 9.6 0.00 0.00 0.00 80 1017.0
20260506154500 76 201 8.7 10.4 0.00 0.00 0.00 81 1016.6
20260506153958 76 201 8.7 10.4 0.00 0.00 0.00 82 1016.6
20260506153458 75 205 8.7 9.6 0.00 0.00 0.00 83 1016.6
20260506152959 75 210 8.7 10.4 0.00 0.00 0.00 83 1016.9
20260506152458 76 209 8.7 10.4 0.00 0.00 0.00 82 1016.6
20260506151958 76 189 10.4 12.2 0.00 0.00 0.00 82 1016.4
20260506151459 75 195 8.7 10.4 0.00 0.00 0.00 82 1016.3
20260506150959 76 193 9.6 10.4 0.00 0.00 0.00 84 1016.5
20260506150459 75 200 7.0 8.7 0.00 0.00 0.00 82 1016.3
20260506145959 75 193 9.6 11.3 0.00 0.00 0.00 82 1016.4
20260506145459 75 189 9.6 11.3 0.00 0.00 0.00 81 1016.5
20260506144958 75 189 10.4 12.2 0.00 0.00 0.00 83 1016.3
20260506144459 75 200 8.7 9.6 0.00 0.00 0.00 81 1016.2
20260506143959 75 197 8.7 9.6 0.00 0.00 0.00 82 1016.2
20260506143459 75 196 9.6 11.3 0.00 0.00 0.00 82 1016.3
20260506142958 75 189 11.3 12.2 0.00 0.00 0.00 82 1016.4
20260506142458 75 184 11.3 13.0 0.00 0.00 0.00 81 1016.3
20260506141958 75 207 12.2 14.8 0.00 0.00 0.00 80 1016.2
20260506141458 75 206 11.3 13.0 0.00 0.00 0.00 81 1016.2
20260506140958 75 197 11.3 13.9 0.00 0.00 0.00 80 1016.1
20260506140458 75 194 9.6 10.4 0.00 0.00 0.00 80 1016.0
20260506135958 75 204 10.4 12.2 0.00 0.00 0.00 81 1016.0
20260506135458 75 206 10.4 12.2 0.00 0.00 0.00 81 1015.9
20260506134958 75 191 9.6 11.3 0.00 0.00 0.00 80 1015.7
20260506134458 75 206 9.6 10.4 0.00 0.00 0.00 80 1015.8
20260506133959 75 194 7.8 9.6 0.00 0.00 0.00 81 1015.8
20260506133458 75 194 8.7 10.4 0.00 0.00 0.00 81 1015.6
20260506132959 75 201 7.0 7.8 0.00 0.00 0.00 81 1015.7
20260506132459 75 196 9.6 10.4 0.00 0.00 0.00 81 1015.5
20260506131958 75 198 9.6 11.3 0.00 0.00 0.00 81 1015.3
20260506131459 74 204 8.7 9.6 0.00 0.00 0.00 82 1015.3
20260506130959 74 200 9.6 11.3 0.00 0.00 0.00 82 1015.2
20260506130459 74 194 10.4 12.2 0.00 0.00 0.00 83 1015.2
20260506125958 74 194 11.3 13.0 0.00 0.00 0.00 82 1015.2
20260506125459 74 200 7.0 8.7 0.00 0.00 0.00 83 1015.3
20260506124959 74 203 8.7 9.6 0.00 0.00 0.00 84 1015.2
20260506124459 74 192 8.7 10.4 0.00 0.00 0.00 84 1015.2
20260506123959 74 184 8.7 10.4 0.00 0.00 0.00 85 1015.3
20260506123459 73 192 6.1 7.8 0.00 0.00 0.00 86 1015.2
20260506122959 73 179 7.8 8.7 0.00 0.00 0.00 87 1015.3
20260506122458 73 184 7.8 8.7 0.00 0.00 0.00 87 1015.2
20260506121958 73 185 7.0 7.8 0.00 0.00 0.00 87 1015.2
20260506121459 73 189 6.1 6.1 0.00 0.00 0.00 88 1015.2
20260506120959 73 180 6.1 7.0 0.00 0.00 0.00 88 1015.2
20260506120500 73 189 5.2 6.1 0.00 0.00 0.00 89 1015.2
20260506115958 73 184 5.2 5.2 0.00 0.00 0.00 89 1015.2
20260506115459 73 197 5.2 6.1 0.00 0.00 0.00 89 1015.1
20260506114959 73 187 6.1 7.0 0.00 0.00 0.00 89 1015.1
20260506114459 72 189 6.1 6.1 0.00 0.00 0.00 89 1015.0
20260506113959 72 206 6.1 7.0 0.00 0.00 0.00 89 1015.0
20260506113502 72 197 6.1 6.1 0.00 0.00 0.00 90 1015.0
20260506112959 72 206 6.1 7.0 0.00 0.00 0.00 90 1014.9
20260506112500 72 192 7.0 7.8 0.00 0.00 0.00 89 1015.0
20260506112001 72 186 7.0 7.8 0.00 0.00 0.00 89 1015.0
20260506111501 72 190 7.0 7.0 0.00 0.00 0.00 89 1014.9
20260506110959 72 186 7.0 7.8 0.00 0.00 0.00 89 1014.9
20260506110459 72 185 7.0 7.8 0.00 0.00 0.00 88 1014.9
20260506105958 72 183 5.2 6.1 0.00 0.00 0.00 89 1014.8
20260506105458 72 172 7.0 7.8 0.00 0.00 0.00 88 1014.9
20260506104958 72 173 7.0 7.8 0.00 0.00 0.00 88 1014.8
20260506104500 72 170 7.0 7.8 0.00 0.00 0.00 88 1014.8
20260506103959 72 167 6.1 7.8 0.00 0.00 0.00 89 1014.8
20260506103458 72 172 8.7 9.6 0.00 0.00 0.00 89 1014.7
20260506102958 72 172 7.0 7.8 0.00 0.00 0.00 89 1014.7
20260506102458 72 168 7.0 8.7 0.00 0.00 0.00 89 1014.8
20260506101958 72 175 6.1 7.0 0.00 0.00 0.00 89 1014.8